This is the latest recevied weather packets stored in our database for station/object K7FLA. If no packets are shown the sender has not sent any weather packets the latest 10 day(s).
| Time | Temp. | Humidity | Pressure | Rain* | Wind** | Luminosity | Snow |
|---|---|---|---|---|---|---|---|
| 1788463677 | 29.44° C | 28% | 1095.2 hPa | 0 mm | - | 782 W/m² | - |
| 1788463373 | 30° C | 26% | 1095.4 hPa | 0 mm | - | 783 W/m² | - |
| 1788463069 | 29.44° C | 29% | 1095.4 hPa | 0 mm | - | 779 W/m² | - |
| 1788462764 | 29.44° C | 29% | 1095.7 hPa | 0 mm | - | 782 W/m² | - |
| 1788462476 | 30° C | 30% | 1095.6 hPa | 0 mm | - | 778 W/m² | - |
| 1788462158 | 29.44° C | 28% | 1095.5 hPa | 0 mm | - | 775 W/m² | - |
| 1788461853 | 29.44° C | 30% | 1095.7 hPa | 0 mm | - | 767 W/m² | - |
| 1788461548 | 29.44° C | 28% | 1096 hPa | 0 mm | - | 766 W/m² | - |
| 1788461244 | 29.44° C | 30% | 1096.1 hPa | 0 mm | - | 765 W/m² | - |
| 1788460941 | 29.44° C | 31% | 1095.9 hPa | 0 mm | - | 763 W/m² | - |
| 1788460640 | 29.44° C | 31% | 1096.1 hPa | 0 mm | - | 756 W/m² | - |
| 1788460334 | 29.44° C | 27% | 1096 hPa | 0 mm | - | 750 W/m² | - |
| 1788460033 | 29.44° C | 28% | 1096 hPa | 0 mm | - | 745 W/m² | - |
| 1788459729 | 30° C | 26% | 1096.1 hPa | 0 mm | - | 740 W/m² | - |
| 1788459428 | 30° C | 28% | 1096.2 hPa | 0 mm | - | 732 W/m² | - |
| 1788459122 | 30° C | 26% | 1096.1 hPa | 0 mm | - | 723 W/m² | - |
| 1788458819 | 30° C | 27% | 1096 hPa | 0 mm | - | 718 W/m² | - |
| 1788458517 | 30° C | 29% | 1096.2 hPa | 0 mm | - | 708 W/m² | - |
| 1788458217 | 29.44° C | 29% | 1096.3 hPa | 0 mm | - | 698 W/m² | - |
| 1788457911 | 29.44° C | 27% | 1096.1 hPa | 0 mm | - | 691 W/m² | - |
| 1788457611 | 29.44° C | 28% | 1096.2 hPa | 0 mm | - | 680 W/m² | - |
| 1788457306 | 28.89° C | 29% | 1096.2 hPa | 0 mm | - | 670 W/m² | - |
| 1788457001 | 28.89° C | 29% | 1096.2 hPa | 0 mm | - | 658 W/m² | - |
| 1788456698 | 28.33° C | 29% | 1096.2 hPa | 0 mm | - | 647 W/m² | - |
| 1788456407 | 28.33° C | 28% | 1096.2 hPa | 0 mm | - | 637 W/m² | - |
* Rain latest hour (hover to see other rain measurements)
** Current wind speed in m/s (hover to see current wind gust speed)